Gainesville, FL

11:13 AM EDT on April 25, 2018 (GMT -0400)
Gainesville Regional

Weather History for KGNV - October, 2011

Change the Weather History Date:

Sunday, October 9, 2011

  Actual Average Record
Temperature  
Mean Temperature 76 °F 73 °F  
Max Temperature 82 °F 83 °F 96 °F (1941)
Min Temperature 70 °F 63 °F 42 °F (2000)
Degree Days  
Heating Degree Days 0 0  
Month to date heating degree days 1 0  
Since 1 July heating degree days 1 0  
Cooling Degree Days 11 8  
Month to date cooling degree days 48 84  
Year to date cooling degree days 2893 2424  
Growing Degree Days 26 (Base 50)    
Moisture  
Dew Point 67 °F    
Average Humidity 73    
Maximum Humidity 90    
Minimum Humidity 55    
Precipitation  
Precipitation 0.37 in 0.11 in 1.47 in (2008)
Month to date precipitation 0.77 1.11  
Year to date precipitation 29.31 41.10  
Snow  
Snow 0.00 in 0.00 in 0.00 in ()
Month to date snowfall 0.0 0.0  
Since 1 July snowfall 0.0 0.0  
Since 1 September snowfall 0.0 0.0  
Snow Depth 0.00 in    
Sea Level Pressure  
Sea Level Pressure 29.98 in    
Wind  
Wind Speed 11 mph (NE)    
Max Wind Speed 23 mph    
Max Gust Speed 32 mph    
Visibility 8 miles    
Events Rain    
T = Trace of Precipitation, MM = Missing Value Source: NWS Daily Summary

Daily Weather History Graph

Daily Weather History Graph

Search for Another Location

Airport or City:

Astronomy

Oct. 09, 2011 Rise Set
Actual Time 7:26 AM EDT 7:05 PM EDT
Civil Twilight 7:02 AM EDT 7:29 PM EDT
Nautical Twilight 6:35 AM EDT 7:56 PM EDT
Astronomical Twilight 6:07 AM EDT 8:24 PM EDT
Moon 5:37 PM EDT (10/9) 5:17 AM EDT (10/9)
Length of Visible Light 12h 26m
Length of Day
11h 38m
Waxing Gibbous, 95% of the Moon is Illuminated
Oct 9
Waxing Gibbous
Oct 11
Full
Oct 19
Last Quarter
Oct 26
New
Nov 2
First Quarter

Hourly Weather History & Observations

Time (EDT) Temp. Heat Index Dew Point Humidity Pressure Visibility Wind Dir Wind Speed Gust Speed Precip Events Conditions
12:53 AM 71.1 °F - 66.0 °F 84% 30.07 in 10.0 mi NE 6.9 mph - 0.00 in Rain Light Rain
1:53 AM 71.1 °F - 66.0 °F 84% 30.06 in 10.0 mi NE 6.9 mph - 0.00 in   Clear
2:53 AM 71.6 °F - 66.2 °F 83% 30.04 in 10.0 mi North 6.9 mph - N/A Rain Light Rain
3:53 AM 71.1 °F - 66.9 °F 87% 30.02 in 10.0 mi NNE 9.2 mph - 0.00 in Rain Light Rain
4:37 AM 71.6 °F - 66.2 °F 83% 30.02 in 9.0 mi NNE 9.2 mph - 0.00 in Rain Light Rain
4:53 AM 71.1 °F - 66.9 °F 87% 30.01 in 7.0 mi NNE 9.2 mph - 0.01 in Rain Rain
5:53 AM 72.0 °F - 68.0 °F 87% 30.01 in 10.0 mi North 10.4 mph - 0.03 in Rain Light Rain
6:53 AM 72.0 °F - 68.0 °F 87% 30.01 in 10.0 mi North 6.9 mph - 0.00 in   Overcast
7:53 AM 72.0 °F - 68.0 °F 87% 30.04 in 7.0 mi NNE 6.9 mph - 0.06 in Rain Rain
8:36 AM 71.6 °F - 68.0 °F 88% 30.05 in 7.0 mi NE 17.3 mph 21.9 mph 0.02 in Rain Rain
8:49 AM 71.6 °F - 66.2 °F 83% 30.05 in 8.0 mi ENE 15.0 mph 21.9 mph 0.03 in Rain Light Rain
8:53 AM 71.1 °F - 66.9 °F 87% 30.05 in 9.0 mi ENE 10.4 mph - 0.04 in Rain Light Rain
9:30 AM 69.8 °F - 66.2 °F 88% 30.05 in 3.0 mi ENE 6.9 mph - 0.10 in Rain Rain
9:53 AM 71.1 °F - 66.9 °F 87% 30.05 in 10.0 mi North 5.8 mph - 0.11 in   Overcast
10:23 AM 71.6 °F - 68.0 °F 88% 30.04 in 10.0 mi Variable 6.9 mph - N/A   Mostly Cloudy
10:53 AM 73.9 °F - 69.1 °F 85% 30.04 in 10.0 mi North 8.1 mph - N/A   Mostly Cloudy
11:30 AM 75.2 °F - 69.8 °F 83% 30.03 in 10.0 mi North 10.4 mph - N/A   Mostly Cloudy
11:53 AM 77.0 °F - 70.0 °F 79% 30.02 in 10.0 mi NNE 8.1 mph - N/A   Mostly Cloudy
12:53 PM 80.1 °F 82.7 °F 68.0 °F 67% 29.99 in 10.0 mi NE 12.7 mph 18.4 mph N/A   Overcast
1:53 PM 80.1 °F 82.9 °F 69.1 °F 69% 29.96 in 10.0 mi NE 12.7 mph - 0.00 in   Overcast
2:53 PM 81.0 °F 83.8 °F 68.0 °F 65% 29.93 in 10.0 mi ENE 18.4 mph 27.6 mph N/A   Mostly Cloudy
3:53 PM 82.0 °F 83.8 °F 64.9 °F 56% 29.93 in 10.0 mi ENE 18.4 mph 32.2 mph 0.00 in   Mostly Cloudy
4:53 PM 80.1 °F 81.9 °F 64.9 °F 60% 29.92 in 10.0 mi ENE 12.7 mph 20.7 mph N/A   Overcast
5:53 PM 73.0 °F - 66.0 °F 79% 29.93 in 3.0 mi East 19.6 mph 27.6 mph 0.01 in Rain Rain
5:56 PM 71.6 °F - 66.2 °F 83% 29.93 in 1.8 mi East 13.8 mph 27.6 mph 0.01 in Rain Heavy Rain
6:07 PM 71.6 °F - 68.0 °F 88% 29.93 in 3.0 mi ENE 9.2 mph 19.6 mph N/A Rain Light Rain
6:22 PM 71.6 °F - 68.0 °F 88% 29.93 in 5.0 mi ENE 13.8 mph 19.6 mph 0.07 in Rain Light Rain
6:32 PM 71.6 °F - 66.2 °F 83% 29.93 in 2.5 mi ENE 21.9 mph 28.8 mph 0.08 in Rain Light Rain
6:42 PM 71.6 °F - 68.0 °F 88% 29.93 in 4.0 mi ENE 15.0 mph 25.3 mph 0.08 in Rain Light Rain
6:51 PM 71.6 °F - 66.2 °F 83% 29.92 in 9.0 mi ENE 16.1 mph - 0.08 in Rain Light Rain
6:53 PM 71.1 °F - 66.9 °F 87% 29.92 in 8.0 mi ENE 16.1 mph - 0.08 in Rain Light Rain
8:53 PM 72.0 °F - 66.9 °F 84% 29.91 in 3.0 mi NNE 9.2 mph - 0.00 in Rain Light Rain
9:06 PM 71.6 °F - 66.2 °F 83% 29.92 in 3.0 mi NE 8.1 mph - 0.01 in Rain Light Rain
9:44 PM 71.6 °F - 66.2 °F 83% 29.92 in 10.0 mi NE 10.4 mph - 0.01 in   Mostly Cloudy
9:53 PM 71.1 °F - 66.9 °F 87% 29.91 in 10.0 mi NE 9.2 mph - 0.01 in Rain Light Rain
10:53 PM 71.1 °F - 66.9 °F 87% 29.88 in 10.0 mi North 9.2 mph - 0.00 in   Mostly Cloudy
11:53 PM 71.1 °F - 66.0 °F 84% 29.87 in 10.0 mi NE 8.1 mph - 0.00 in Rain Light Rain